Time,TemperatureF,DewpointF,PressureIn,WindDirection,WindDirectionDegrees,WindSpeedMPH,WindSpeedGustMPH,Humidity,HourlyPrecipIn,Conditions,Clouds,dailyrainin,SoftwareType,DateUTC
2013-03-31 00:00:00,50.2,42.2,30.02,SE,129,0.0,4.0,74,0.00,,,0.00,Wunderground v.1.15,2013-03-31 04:00:00,
2013-03-31 00:05:00,50.1,42.1,30.02,SSW,198,0.0,4.0,74,0.00,,,0.00,Wunderground v.1.15,2013-03-31 04:05:00,
2013-03-31 00:15:00,50.1,42.5,30.02,SSE,162,0.0,1.0,75,0.00,,,0.00,Wunderground v.1.15,2013-03-31 04:15:00,
2013-03-31 00:20:00,50.1,42.5,30.02,SSW,207,0.0,1.0,75,0.00,,,0.00,Wunderground v.1.15,2013-03-31 04:20:00,
2013-03-31 00:30:00,49.9,42.6,30.02,South,177,0.0,1.0,76,0.00,,,0.00,Wunderground v.1.15,2013-03-31 04:30:00,
2013-03-31 00:35:00,49.8,42.5,30.02,South,182,0.0,1.0,76,0.00,,,0.00,Wunderground v.1.15,2013-03-31 04:35:00,
2013-03-31 00:40:00,49.7,42.8,30.02,South,182,0.0,1.0,77,0.00,,,0.00,Wunderground v.1.15,2013-03-31 04:40:00,
2013-03-31 00:45:00,49.7,43.1,30.01,South,182,0.0,1.0,78,0.00,,,0.00,Wunderground v.1.15,2013-03-31 04:45:00,
2013-03-31 00:50:00,49.6,43.0,30.01,SSW,207,0.0,1.0,78,0.00,,,0.00,Wunderground v.1.15,2013-03-31 04:50:00,
2013-03-31 01:00:00,49.8,43.2,30.01,SSE,163,0.0,1.0,78,0.00,,,0.00,Wunderground v.1.15,2013-03-31 05:00:00,
2013-03-31 01:05:00,49.8,43.2,30.01,SSE,155,0.0,1.0,78,0.00,,,0.00,Wunderground v.1.15,2013-03-31 05:05:00,
2013-03-31 01:10:00,49.8,43.5,30.01,SSW,196,1.0,1.0,79,0.00,,,0.00,Wunderground v.1.15,2013-03-31 05:10:00,
2013-03-31 01:15:00,49.8,43.5,30.01,SE,144,1.0,1.0,79,0.00,,,0.00,Wunderground v.1.15,2013-03-31 05:15:00,
2013-03-31 01:20:00,49.9,43.6,30.01,SSE,166,1.0,2.0,79,0.00,,,0.00,Wunderground v.1.15,2013-03-31 05:20:00,
2013-03-31 01:30:00,50.1,44.2,30.00,SE,141,1.0,1.0,80,0.00,,,0.00,Wunderground v.1.15,2013-03-31 05:30:00,
2013-03-31 01:35:00,50.1,44.2,30.00,ESE,119,1.0,1.0,80,0.00,,,0.00,Wunderground v.1.15,2013-03-31 05:35:00,
2013-03-31 01:40:00,50.2,44.3,30.00,SSE,157,1.0,1.0,80,0.00,,,0.00,Wunderground v.1.15,2013-03-31 05:40:00,
2013-03-31 01:45:00,50.3,44.4,30.00,South,183,0.0,1.0,80,0.00,,,0.00,Wunderground v.1.15,2013-03-31 05:45:00,
2013-03-31 01:50:00,50.3,44.4,30.00,South,187,0.0,1.0,80,0.00,,,0.00,Wunderground v.1.15,2013-03-31 05:50:00,
2013-03-31 02:00:00,50.4,44.5,29.99,ESE,113,0.0,1.0,80,0.00,,,0.00,Wunderground v.1.15,2013-03-31 06:00:00,
2013-03-31 02:05:00,50.4,44.5,29.99,ESE,113,0.0,1.0,80,0.00,,,0.00,Wunderground v.1.15,2013-03-31 06:05:00,
2013-03-31 02:10:00,50.3,44.4,29.99,ESE,113,0.0,1.0,80,0.00,,,0.00,Wunderground v.1.15,2013-03-31 06:10:00,
2013-03-31 02:15:00,50.3,44.4,29.98,ESE,113,0.0,1.0,80,0.00,,,0.00,Wunderground v.1.15,2013-03-31 06:15:00,
2013-03-31 02:25:00,50.3,44.4,29.98,SE,127,1.0,1.0,80,0.00,,,0.00,Wunderground v.1.15,2013-03-31 06:25:00,
2013-03-31 02:30:00,50.3,44.7,29.97,SE,128,1.0,1.0,81,0.00,,,0.00,Wunderground v.1.15,2013-03-31 06:30:00,
2013-03-31 02:35:00,50.2,44.3,29.97,SSE,167,1.0,1.0,80,0.00,,,0.00,Wunderground v.1.15,2013-03-31 06:35:00,
2013-03-31 02:40:00,50.1,44.5,29.97,SSE,166,0.0,2.0,81,0.00,,,0.00,Wunderground v.1.15,2013-03-31 06:40:00,
2013-03-31 02:50:00,49.9,44.3,29.97,SSE,150,1.0,1.0,81,0.00,,,0.00,Wunderground v.1.15,2013-03-31 06:50:00,
2013-03-31 02:55:00,49.8,44.5,29.97,SSE,151,1.0,5.0,82,0.00,,,0.00,Wunderground v.1.15,2013-03-31 06:55:00,
2013-03-31 03:00:00,49.8,44.5,29.97,SSE,152,1.0,1.0,82,0.00,,,0.00,Wunderground v.1.15,2013-03-31 07:00:00,
2013-03-31 03:05:00,49.8,44.5,29.97,SE,139,2.0,2.0,82,0.00,,,0.00,Wunderground v.1.15,2013-03-31 07:05:00,
2013-03-31 03:15:00,49.8,44.8,29.96,SE,134,1.0,3.0,83,0.00,,,0.00,Wunderground v.1.15,2013-03-31 07:15:00,
2013-03-31 03:20:00,49.8,44.8,29.96,SSE,150,1.0,1.0,83,0.00,,,0.00,Wunderground v.1.15,2013-03-31 07:20:00,
2013-03-31 03:25:00,49.8,44.8,29.96,SE,135,1.0,2.0,83,0.00,,,0.00,Wunderground v.1.15,2013-03-31 07:25:00,
2013-03-31 03:30:00,49.8,44.8,29.96,SE,139,1.0,1.0,83,0.00,,,0.00,Wunderground v.1.15,2013-03-31 07:30:00,
2013-03-31 03:35:00,49.8,44.8,29.96,East,100,1.0,1.0,83,0.00,,,0.00,Wunderground v.1.15,2013-03-31 07:35:00,
2013-03-31 03:45:00,49.7,44.7,29.95,SE,131,1.0,2.0,83,0.00,,,0.00,Wunderground v.1.15,2013-03-31 07:45:00,
2013-03-31 03:50:00,49.6,44.6,29.95,SE,137,1.0,1.0,83,0.00,,,0.00,Wunderground v.1.15,2013-03-31 07:50:00,
2013-03-31 03:55:00,49.6,44.6,29.95,West,261,1.0,2.0,83,0.00,,,0.00,Wunderground v.1.15,2013-03-31 07:55:00,
2013-03-31 04:00:00,49.5,44.6,29.94,ESE,109,1.0,1.0,83,0.00,,,0.00,Wunderground v.1.15,2013-03-31 08:00:00,
2013-03-31 04:10:00,49.3,44.7,29.94,East,98,1.0,1.0,84,0.00,,,0.00,Wunderground v.1.15,2013-03-31 08:10:00,
2013-03-31 04:15:00,49.2,44.6,29.93,South,186,1.0,1.0,84,0.00,,,0.00,Wunderground v.1.15,2013-03-31 08:15:00,
2013-03-31 04:20:00,49.2,44.6,29.93,SSW,198,0.0,3.0,84,0.00,,,0.00,Wunderground v.1.15,2013-03-31 08:20:00,
2013-03-31 04:25:00,49.2,44.3,29.93,South,174,1.0,3.0,83,0.00,,,0.00,Wunderground v.1.15,2013-03-31 08:25:00,
2013-03-31 04:30:00,49.1,44.2,29.92,ESE,111,1.0,1.0,83,0.00,,,0.00,Wunderground v.1.15,2013-03-31 08:30:00,
2013-03-31 04:40:00,49.1,44.2,29.92,ESE,123,1.0,1.0,83,0.00,,,0.00,Wunderground v.1.15,2013-03-31 08:40:00,
2013-03-31 04:45:00,49.1,44.2,29.91,ESE,107,0.0,1.0,83,0.00,,,0.00,Wunderground v.1.15,2013-03-31 08:45:00,
2013-03-31 04:50:00,49.1,44.2,29.91,ESE,103,0.0,1.0,83,0.00,,,0.00,Wunderground v.1.15,2013-03-31 08:50:00,
2013-03-31 04:55:00,49.0,44.1,29.91,East,101,1.0,1.0,83,0.00,,,0.00,Wunderground v.1.15,2013-03-31 08:55:00,
2013-03-31 05:00:00,48.9,44.0,29.91,ESE,105,0.0,1.0,83,0.00,,,0.00,Wunderground v.1.15,2013-03-31 09:00:00,
2013-03-31 05:10:00,48.8,44.2,29.91,East,101,1.0,1.0,84,0.00,,,0.00,Wunderground v.1.15,2013-03-31 09:10:00,
2013-03-31 05:15:00,48.7,44.1,29.91,SSE,155,1.0,1.0,84,0.00,,,0.00,Wunderground v.1.15,2013-03-31 09:15:00,
2013-03-31 05:20:00,48.8,44.2,29.91,SSE,155,1.0,1.0,84,0.00,,,0.00,Wunderground v.1.15,2013-03-31 09:20:00,
2013-03-31 05:25:00,48.9,44.3,29.91,SE,131,0.0,1.0,84,0.00,,,0.00,Wunderground v.1.15,2013-03-31 09:25:00,
2013-03-31 05:35:00,49.0,44.7,29.91,South,180,0.0,2.0,85,0.00,,,0.00,Wunderground v.1.15,2013-03-31 09:35:00,
2013-03-31 05:40:00,49.0,45.0,29.91,South,187,1.0,2.0,86,0.00,,,0.00,Wunderground v.1.15,2013-03-31 09:40:00,
2013-03-31 05:45:00,49.0,45.3,29.92,SSW,212,1.0,2.0,87,0.00,,,0.01,Wunderground v.1.15,2013-03-31 09:45:00,
2013-03-31 05:55:00,48.9,45.8,29.92,SW,215,0.0,1.0,89,0.14,,,0.03,Wunderground v.1.15,2013-03-31 09:55:00,
2013-03-31 06:00:00,48.7,45.9,29.92,SW,215,0.0,1.0,90,0.08,,,0.03,Wunderground v.1.15,2013-03-31 10:00:00,
2013-03-31 06:05:00,48.5,46.0,29.92,SW,215,1.0,1.0,91,0.05,,,0.04,Wunderground v.1.15,2013-03-31 10:05:00,
2013-03-31 06:10:00,48.3,46.1,29.92,SSW,212,1.0,1.0,92,0.13,,,0.05,Wunderground v.1.15,2013-03-31 10:10:00,
2013-03-31 06:15:00,48.2,46.0,29.93,WSW,252,1.0,1.0,92,0.11,,,0.06,Wunderground v.1.15,2013-03-31 10:15:00,
2013-03-31 06:25:00,47.9,46.0,29.93,SSW,198,0.0,1.0,93,0.09,,,0.07,Wunderground v.1.15,2013-03-31 10:25:00,
2013-03-31 06:30:00,47.8,45.9,29.92,SSW,198,0.0,1.0,93,0.08,,,0.08,Wunderground v.1.15,2013-03-31 10:30:00,
2013-03-31 06:35:00,47.7,45.8,29.92,SSW,198,0.0,1.0,93,0.13,,,0.09,Wunderground v.1.15,2013-03-31 10:35:00,
2013-03-31 06:40:00,47.6,46.0,29.92,SE,145,0.0,1.0,94,0.22,,,0.11,Wunderground v.1.15,2013-03-31 10:40:00,
2013-03-31 06:45:00,47.5,45.9,29.92,SSE,154,0.0,1.0,94,0.19,,,0.12,Wunderground v.1.15,2013-03-31 10:45:00,
2013-03-31 06:55:00,47.4,45.8,29.92,ESE,106,1.0,2.0,94,0.17,,,0.15,Wunderground v.1.15,2013-03-31 10:55:00,
2013-03-31 07:00:00,47.3,45.7,29.89,SE,135,2.0,3.0,94,0.12,,,0.16,Wunderground v.1.15,2013-03-31 11:00:00,
2013-03-31 07:05:00,47.2,45.8,29.89,South,172,1.0,3.0,95,0.08,,,0.17,Wunderground v.1.15,2013-03-31 11:05:00,
2013-03-31 07:10:00,47.2,45.8,29.89,ESE,111,1.0,2.0,95,0.12,,,0.18,Wunderground v.1.15,2013-03-31 11:10:00,
2013-03-31 07:15:00,47.1,45.7,29.89,SE,138,2.0,2.0,95,0.18,,,0.19,Wunderground v.1.15,2013-03-31 11:15:00,
2013-03-31 07:25:00,46.9,45.5,29.89,ESE,104,2.0,2.0,95,0.09,,,0.20,Wunderground v.1.15,2013-03-31 11:25:00,
2013-03-31 07:30:00,46.9,45.5,29.89,East,101,1.0,1.0,95,0.07,,,0.21,Wunderground v.1.15,2013-03-31 11:30:00,
2013-03-31 07:35:00,46.9,45.5,29.89,East,94,1.0,1.0,95,0.09,,,0.21,Wunderground v.1.15,2013-03-31 11:35:00,
2013-03-31 07:45:00,46.9,45.5,29.89,South,186,0.0,1.0,95,0.18,,,0.25,Wunderground v.1.15,2013-03-31 11:45:00,
2013-03-31 07:50:00,46.9,45.5,29.89,ESE,122,1.0,1.0,95,0.17,,,0.27,Wunderground v.1.15,2013-03-31 11:50:00,
2013-03-31 07:55:00,46.9,45.8,29.89,South,190,1.0,1.0,96,0.12,,,0.28,Wunderground v.1.15,2013-03-31 11:55:00,
2013-03-31 08:00:00,47.0,45.9,29.88,SE,134,1.0,3.0,96,0.13,,,0.29,Wunderground v.1.15,2013-03-31 12:00:00,
2013-03-31 08:05:00,47.0,45.9,29.88,East,98,1.0,3.0,96,0.11,,,0.30,Wunderground v.1.15,2013-03-31 12:05:00,
2013-03-31 08:15:00,47.2,46.1,29.89,SSE,154,1.0,2.0,96,0.09,,,0.31,Wunderground v.1.15,2013-03-31 12:15:00,
2013-03-31 08:20:00,47.2,46.1,29.89,WNW,286,1.0,2.0,96,0.48,,,0.32,Wunderground v.1.15,2013-03-31 12:20:00,
2013-03-31 08:25:00,47.2,46.1,29.89,NW,314,1.0,2.0,96,0.27,,,0.35,Wunderground v.1.15,2013-03-31 12:25:00,
2013-03-31 08:30:00,47.2,46.1,29.89,NW,314,0.0,1.0,96,0.13,,,0.36,Wunderground v.1.15,2013-03-31 12:30:00,
2013-03-31 08:40:00,47.3,46.2,29.89,SE,142,1.0,1.0,96,0.08,,,0.37,Wunderground v.1.15,2013-03-31 12:40:00,
2013-03-31 08:45:00,47.4,46.3,29.88,SSE,147,0.0,1.0,96,0.05,,,0.37,Wunderground v.1.15,2013-03-31 12:45:00,
2013-03-31 08:50:00,47.5,46.7,29.88,SW,217,0.0,1.0,97,0.00,,,0.37,Wunderground v.1.15,2013-03-31 12:50:00,
2013-03-31 08:55:00,47.5,46.7,29.88,SE,127,1.0,1.0,97,0.00,,,0.37,Wunderground v.1.15,2013-03-31 12:55:00,
2013-03-31 09:00:00,47.6,46.8,29.87,SE,127,0.0,1.0,97,0.00,,,0.38,Wunderground v.1.15,2013-03-31 13:00:00,
2013-03-31 09:10:00,47.7,46.9,29.87,ESE,122,0.0,1.0,97,0.00,,,0.38,Wunderground v.1.15,2013-03-31 13:10:00,
2013-03-31 09:15:00,47.7,46.9,29.87,SE,126,1.0,1.0,97,0.00,,,0.38,Wunderground v.1.15,2013-03-31 13:15:00,
2013-03-31 09:20:00,47.9,47.1,29.87,SSE,162,1.0,1.0,97,0.00,,,0.38,Wunderground v.1.15,2013-03-31 13:20:00,
2013-03-31 09:25:00,48.0,47.2,29.87,SSE,158,1.0,1.0,97,0.00,,,0.38,Wunderground v.1.15,2013-03-31 13:25:00,
2013-03-31 09:35:00,48.4,47.6,29.87,SW,231,1.0,2.0,97,0.00,,,0.38,Wunderground v.1.15,2013-03-31 13:35:00,
2013-03-31 09:40:00,48.7,47.9,29.87,SE,143,1.0,2.0,97,0.00,,,0.38,Wunderground v.1.15,2013-03-31 13:40:00,
2013-03-31 09:45:00,48.9,48.1,29.86,SE,146,1.0,2.0,97,0.00,,,0.38,Wunderground v.1.15,2013-03-31 13:45:00,
2013-03-31 09:50:00,49.2,48.4,29.86,SE,142,1.0,1.0,97,0.00,,,0.38,Wunderground v.1.15,2013-03-31 13:50:00,
2013-03-31 09:55:00,49.6,48.8,29.86,SE,146,1.0,1.0,97,0.00,,,0.38,Wunderground v.1.15,2013-03-31 13:55:00,
2013-03-31 10:05:00,50.0,49.2,29.85,SSE,167,1.0,1.0,97,0.00,,,0.38,Wunderground v.1.15,2013-03-31 14:05:00,
2013-03-31 10:10:00,50.3,49.5,29.85,South,175,1.0,1.0,97,0.00,,,0.38,Wunderground v.1.15,2013-03-31 14:10:00,
2013-03-31 10:15:00,50.6,49.8,29.85,South,171,1.0,1.0,97,0.00,,,0.38,Wunderground v.1.15,2013-03-31 14:15:00,
2013-03-31 10:20:00,50.7,49.9,29.85,SSE,164,1.0,1.0,97,0.00,,,0.38,Wunderground v.1.15,2013-03-31 14:20:00,
2013-03-31 10:30:00,51.1,50.3,29.84,South,190,1.0,1.0,97,0.00,,,0.38,Wunderground v.1.15,2013-03-31 14:30:00,
2013-03-31 10:35:00,51.3,50.5,29.84,SE,129,2.0,2.0,97,0.00,,,0.38,Wunderground v.1.15,2013-03-31 14:35:00,
2013-03-31 10:40:00,51.5,50.7,29.84,SSW,203,2.0,3.0,97,0.00,,,0.38,Wunderground v.1.15,2013-03-31 14:40:00,
2013-03-31 10:45:00,51.6,50.8,29.84,SSW,193,2.0,3.0,97,0.00,,,0.38,Wunderground v.1.15,2013-03-31 14:45:00,
2013-03-31 10:50:00,51.8,51.0,29.84,SSE,159,2.0,2.0,97,0.00,,,0.38,Wunderground v.1.15,2013-03-31 14:50:00,
2013-03-31 11:00:00,52.3,51.5,29.84,SSE,163,1.0,1.0,97,0.00,,,0.38,Wunderground v.1.15,2013-03-31 15:00:00,
2013-03-31 11:05:00,52.6,51.8,29.84,South,189,1.0,2.0,97,0.00,,,0.38,Wunderground v.1.15,2013-03-31 15:05:00,
2013-03-31 11:10:00,53.0,52.2,29.84,South,181,2.0,2.0,97,0.00,,,0.38,Wunderground v.1.15,2013-03-31 15:10:00,
2013-03-31 11:20:00,53.8,53.0,29.84,West,269,2.0,2.0,97,0.00,,,0.38,Wunderground v.1.15,2013-03-31 15:20:00,
2013-03-31 11:25:00,54.1,53.3,29.84,South,179,2.0,2.0,97,0.00,,,0.38,Wunderground v.1.15,2013-03-31 15:25:00,
2013-03-31 11:30:00,54.4,53.3,29.83,WSW,239,1.0,4.0,96,0.00,,,0.38,Wunderground v.1.15,2013-03-31 15:30:00,
2013-03-31 11:35:00,54.6,53.2,29.83,West,268,2.0,4.0,95,0.00,,,0.38,Wunderground v.1.15,2013-03-31 15:35:00,
2013-03-31 11:45:00,55.0,53.6,29.84,SSE,160,1.0,2.0,95,0.00,,,0.38,Wunderground v.1.15,2013-03-31 15:45:00,
2013-03-31 11:50:00,55.2,53.5,29.84,SSW,210,1.0,1.0,94,0.00,,,0.38,Wunderground v.1.15,2013-03-31 15:50:00,
2013-03-31 11:55:00,55.5,53.5,29.84,SW,221,2.0,8.0,93,0.00,,,0.38,Wunderground v.1.15,2013-03-31 15:55:00,
2013-03-31 12:00:00,55.9,53.6,29.83,WSW,253,3.0,6.0,92,0.00,,,0.38,Wunderground v.1.15,2013-03-31 16:00:00,
2013-03-31 12:05:00,56.4,54.1,29.83,West,266,3.0,7.0,92,0.00,,,0.38,Wunderground v.1.15,2013-03-31 16:05:00,
2013-03-31 12:15:00,57.5,54.6,29.82,West,263,3.0,7.0,90,0.00,,,0.38,Wunderground v.1.15,2013-03-31 16:15:00,
2013-03-31 12:20:00,57.9,55.0,29.82,SW,229,3.0,7.0,90,0.00,,,0.38,Wunderground v.1.15,2013-03-31 16:20:00,
2013-03-31 12:25:00,58.4,55.5,29.82,WSW,250,2.0,7.0,90,0.00,,,0.38,Wunderground v.1.15,2013-03-31 16:25:00,
2013-03-31 12:30:00,58.8,55.3,29.81,SSW,201,2.0,7.0,88,0.00,,,0.38,Wunderground v.1.15,2013-03-31 16:30:00,
2013-03-31 12:35:00,58.8,54.6,29.81,South,183,3.0,7.0,86,0.00,,,0.38,Wunderground v.1.15,2013-03-31 16:35:00,
2013-03-31 12:45:00,58.7,54.5,29.80,SSW,193,3.0,7.0,86,0.00,,,0.38,Wunderground v.1.15,2013-03-31 16:45:00,
2013-03-31 12:50:00,58.6,54.4,29.80,WSW,241,4.0,7.0,86,0.00,,,0.38,Wunderground v.1.15,2013-03-31 16:50:00,
2013-03-31 12:55:00,58.6,54.7,29.80,WSW,250,3.0,7.0,87,0.00,,,0.38,Wunderground v.1.15,2013-03-31 16:55:00,
2013-03-31 13:00:00,58.6,54.4,29.80,SSE,165,2.0,7.0,86,0.00,,,0.38,Wunderground v.1.15,2013-03-31 17:00:00,
2013-03-31 13:15:00,59.0,55.1,29.79,SW,221,2.0,7.0,87,0.00,,,0.38,Wunderground v.1.15,2013-03-31 17:15:00,
2013-03-31 13:20:00,59.4,55.2,29.79,South,173,2.0,7.0,86,0.00,,,0.38,Wunderground v.1.15,2013-03-31 17:20:00,
2013-03-31 13:30:00,59.9,55.1,29.79,SSW,210,3.0,7.0,84,0.00,,,0.38,Wunderground v.1.15,2013-03-31 17:30:00,
2013-03-31 13:35:00,60.0,55.2,29.79,SSW,213,3.0,7.0,84,0.00,,,0.38,Wunderground v.1.15,2013-03-31 17:35:00,
2013-03-31 13:40:00,60.4,55.5,29.79,WSW,240,3.0,3.0,84,0.00,,,0.38,Wunderground v.1.15,2013-03-31 17:40:00,
2013-03-31 13:45:00,60.7,56.2,29.79,South,181,2.0,7.0,85,0.00,,,0.38,Wunderground v.1.15,2013-03-31 17:45:00,
2013-03-31 13:50:00,60.8,55.3,29.79,SSW,204,2.0,7.0,82,0.00,,,0.38,Wunderground v.1.15,2013-03-31 17:50:00,
2013-03-31 14:00:00,60.9,55.7,29.78,SW,219,3.0,3.0,83,0.00,,,0.38,Wunderground v.1.15,2013-03-31 18:00:00,
2013-03-31 14:05:00,61.2,55.7,29.78,SSW,192,4.0,5.0,82,0.00,,,0.38,Wunderground v.1.15,2013-03-31 18:05:00,
2013-03-31 14:10:00,61.5,55.6,29.78,SW,217,4.0,7.0,81,0.00,,,0.38,Wunderground v.1.15,2013-03-31 18:10:00,
2013-03-31 14:20:00,61.9,55.7,29.77,WSW,242,3.0,7.0,80,0.00,,,0.38,Wunderground v.1.15,2013-03-31 18:20:00,
2013-03-31 14:25:00,62.0,56.1,29.77,SSW,211,3.0,7.0,81,0.00,,,0.38,Wunderground v.1.15,2013-03-31 18:25:00,
2013-03-31 14:30:00,62.2,56.0,29.76,SSW,201,3.0,7.0,80,0.00,,,0.38,Wunderground v.1.15,2013-03-31 18:30:00,
2013-03-31 14:35:00,62.7,56.4,29.76,SW,223,3.0,7.0,80,0.00,,,0.38,Wunderground v.1.15,2013-03-31 18:35:00,
2013-03-31 14:45:00,63.0,55.7,29.76,SW,218,4.0,6.0,77,0.00,,,0.38,Wunderground v.1.15,2013-03-31 18:45:00,
2013-03-31 14:50:00,63.1,55.8,29.76,SSW,193,3.0,7.0,77,0.00,,,0.38,Wunderground v.1.15,2013-03-31 18:50:00,
2013-03-31 14:55:00,63.5,56.5,29.76,SW,229,3.0,7.0,78,0.00,,,0.38,Wunderground v.1.15,2013-03-31 18:55:00,
2013-03-31 15:00:00,63.8,55.7,29.75,SSW,205,3.0,7.0,75,0.00,,,0.38,Wunderground v.1.15,2013-03-31 19:00:00,
2013-03-31 15:05:00,63.9,55.4,29.75,WSW,245,4.0,7.0,74,0.00,,,0.38,Wunderground v.1.15,2013-03-31 19:05:00,
2013-03-31 15:15:00,64.1,54.9,29.75,SW,222,4.0,7.0,72,0.00,,,0.38,Wunderground v.1.15,2013-03-31 19:15:00,
2013-03-31 15:20:00,64.2,55.0,29.75,WSW,243,4.0,4.0,72,0.00,,,0.38,Wunderground v.1.15,2013-03-31 19:20:00,
2013-03-31 15:25:00,64.3,55.5,29.75,South,188,4.0,7.0,73,0.00,,,0.38,Wunderground v.1.15,2013-03-31 19:25:00,
2013-03-31 15:30:00,64.5,55.3,29.75,SW,222,5.0,5.0,72,0.00,,,0.38,Wunderground v.1.15,2013-03-31 19:30:00,
2013-03-31 15:35:00,64.5,54.9,29.75,WSW,241,5.0,7.0,71,0.00,,,0.38,Wunderground v.1.15,2013-03-31 19:35:00,
2013-03-31 15:45:00,64.6,54.6,29.75,SSW,192,4.0,7.0,70,0.00,,,0.38,Wunderground v.1.15,2013-03-31 19:45:00,
2013-03-31 15:50:00,64.4,54.4,29.75,SW,223,3.0,3.0,70,0.00,,,0.38,Wunderground v.1.15,2013-03-31 19:50:00,
2013-03-31 16:00:00,65.7,55.6,29.75,South,181,3.0,7.0,70,0.00,,,0.38,Wunderground v.1.15,2013-03-31 20:00:00,
2013-03-31 16:05:00,65.9,55.0,29.75,WSW,240,4.0,7.0,68,0.00,,,0.38,Wunderground v.1.15,2013-03-31 20:05:00,
2013-03-31 16:10:00,65.4,55.0,29.75,West,276,4.0,7.0,69,0.00,,,0.38,Wunderground v.1.15,2013-03-31 20:10:00,
2013-03-31 16:15:00,65.3,54.9,29.76,WNW,282,4.0,7.0,69,0.00,,,0.38,Wunderground v.1.15,2013-03-31 20:15:00,
2013-03-31 16:25:00,65.1,53.9,29.76,South,190,4.0,7.0,67,0.00,,,0.38,Wunderground v.1.15,2013-03-31 20:25:00,
2013-03-31 16:30:00,64.9,54.1,29.77,WNW,283,4.0,4.0,68,0.00,,,0.38,Wunderground v.1.15,2013-03-31 20:30:00,
2013-03-31 16:35:00,64.7,54.3,29.77,SW,230,3.0,7.0,69,0.00,,,0.38,Wunderground v.1.15,2013-03-31 20:35:00,
2013-03-31 16:40:00,64.6,54.2,29.77,SW,228,2.0,7.0,69,0.00,,,0.38,Wunderground v.1.15,2013-03-31 20:40:00,
2013-03-31 16:50:00,64.3,54.3,29.76,SW,224,2.0,7.0,70,0.00,,,0.38,Wunderground v.1.15,2013-03-31 20:50:00,
2013-03-31 16:55:00,64.1,54.1,29.76,SW,236,3.0,7.0,70,0.00,,,0.38,Wunderground v.1.15,2013-03-31 20:55:00,
2013-03-31 17:00:00,64.3,54.3,29.75,West,278,3.0,7.0,70,0.00,,,0.38,Wunderground v.1.15,2013-03-31 21:00:00,
2013-03-31 17:05:00,64.9,54.9,29.75,SW,219,3.0,7.0,70,0.00,,,0.38,Wunderground v.1.15,2013-03-31 21:05:00,
2013-03-31 17:10:00,65.3,54.9,29.75,WSW,240,3.0,3.0,69,0.00,,,0.38,Wunderground v.1.15,2013-03-31 21:10:00,
2013-03-31 17:20:00,65.9,55.4,29.75,South,184,2.0,7.0,69,0.00,,,0.38,Wunderground v.1.15,2013-03-31 21:20:00,
2013-03-31 17:25:00,66.1,55.2,29.75,West,260,2.0,7.0,68,0.00,,,0.38,Wunderground v.1.15,2013-03-31 21:25:00,
2013-03-31 17:30:00,66.0,54.3,29.74,WNW,298,2.0,7.0,66,0.00,,,0.38,Wunderground v.1.15,2013-03-31 21:30:00,
2013-03-31 17:35:00,65.9,53.8,29.74,WSW,253,3.0,7.0,65,0.00,,,0.38,Wunderground v.1.15,2013-03-31 21:35:00,
2013-03-31 17:45:00,65.5,53.4,29.74,WSW,248,3.0,7.0,65,0.00,,,0.38,Wunderground v.1.15,2013-03-31 21:45:00,
2013-03-31 17:50:00,65.5,54.2,29.74,WNW,283,3.0,7.0,67,0.00,,,0.38,Wunderground v.1.15,2013-03-31 21:50:00,
2013-03-31 17:55:00,65.4,53.7,29.74,WNW,291,3.0,7.0,66,0.00,,,0.38,Wunderground v.1.15,2013-03-31 21:55:00,
2013-03-31 18:00:00,65.4,53.3,29.74,West,275,2.0,7.0,65,0.00,,,0.38,Wunderground v.1.15,2013-03-31 22:00:00,
2013-03-31 18:05:00,65.3,53.2,29.74,WSW,240,2.0,7.0,65,0.00,,,0.38,Wunderground v.1.15,2013-03-31 22:05:00,
2013-03-31 18:15:00,65.1,53.9,29.74,SSW,210,2.0,7.0,67,0.00,,,0.38,Wunderground v.1.15,2013-03-31 22:15:00,
2013-03-31 18:20:00,64.9,53.7,29.74,WSW,248,2.0,7.0,67,0.00,,,0.38,Wunderground v.1.15,2013-03-31 22:20:00,
2013-03-31 18:25:00,64.7,53.5,29.74,SSW,211,1.0,7.0,67,0.00,,,0.38,Wunderground v.1.15,2013-03-31 22:25:00,
2013-03-31 18:30:00,64.6,53.8,29.74,SW,235,1.0,7.0,68,0.00,,,0.38,Wunderground v.1.15,2013-03-31 22:30:00,
2013-03-31 18:35:00,64.4,53.6,29.74,WSW,256,2.0,7.0,68,0.00,,,0.38,Wunderground v.1.15,2013-03-31 22:35:00,
2013-03-31 18:45:00,64.2,53.8,29.75,SW,214,1.0,7.0,69,0.00,,,0.38,Wunderground v.1.15,2013-03-31 22:45:00,
2013-03-31 18:50:00,64.1,53.7,29.75,SW,214,0.0,7.0,69,0.00,,,0.38,Wunderground v.1.15,2013-03-31 22:50:00,
2013-03-31 18:55:00,63.9,54.3,29.75,WNW,300,0.0,7.0,71,0.00,,,0.38,Wunderground v.1.15,2013-03-31 22:55:00,
2013-03-31 19:05:00,63.3,54.1,29.75,WNW,300,0.0,7.0,72,0.00,,,0.38,Wunderground v.1.15,2013-03-31 23:05:00,
2013-03-31 19:10:00,63.0,54.6,29.75,WNW,300,0.0,7.0,74,0.00,,,0.38,Wunderground v.1.15,2013-03-31 23:10:00,
2013-03-31 19:15:00,62.8,54.4,29.74,WNW,300,0.0,7.0,74,0.00,,,0.38,Wunderground v.1.15,2013-03-31 23:15:00,
2013-03-31 19:20:00,62.4,54.4,29.74,WNW,300,0.0,7.0,75,0.00,,,0.38,Wunderground v.1.15,2013-03-31 23:20:00,
2013-03-31 19:30:00,61.8,54.5,29.74,WNW,300,0.0,7.0,77,0.00,,,0.38,Wunderground v.1.15,2013-03-31 23:30:00,
2013-03-31 19:35:00,61.4,54.5,29.74,WNW,300,0.0,7.0,78,0.00,,,0.38,Wunderground v.1.15,2013-03-31 23:35:00,
2013-03-31 19:40:00,60.9,55.0,29.74,WNW,300,0.0,7.0,81,0.00,,,0.38,Wunderground v.1.15,2013-03-31 23:40:00,
2013-03-31 19:50:00,60.0,55.5,29.75,WNW,300,0.0,7.0,85,0.00,,,0.39,Wunderground v.1.15,2013-03-31 23:50:00,
2013-03-31 19:55:00,59.5,55.3,29.75,WNW,300,0.0,7.0,86,0.00,,,0.39,Wunderground v.1.15,2013-03-31 23:55:00,
2013-03-31 20:00:00,58.7,55.2,29.77,WSW,246,1.0,7.0,88,0.05,,,0.40,Wunderground v.1.15,2013-04-01 00:00:00,
2013-03-31 20:05:00,58.4,54.9,29.77,SW,236,2.0,7.0,88,0.05,,,0.40,Wunderground v.1.15,2013-04-01 00:05:00,
2013-03-31 20:15:00,57.7,54.5,29.79,SSW,203,2.0,7.0,89,0.27,,,0.43,Wunderground v.1.15,2013-04-01 00:15:00,
2013-03-31 20:20:00,57.3,54.4,29.79,SW,235,2.0,7.0,90,0.27,,,0.45,Wunderground v.1.15,2013-04-01 00:20:00,
2013-03-31 20:25:00,56.9,54.3,29.79,SW,228,2.0,7.0,91,0.30,,,0.48,Wunderground v.1.15,2013-04-01 00:25:00,
2013-03-31 20:30:00,56.4,54.1,29.79,SSW,199,1.0,1.0,92,0.26,,,0.50,Wunderground v.1.15,2013-04-01 00:30:00,
2013-03-31 20:40:00,55.8,53.8,29.79,SW,233,2.0,7.0,93,0.22,,,0.53,Wunderground v.1.15,2013-04-01 00:40:00,
2013-03-31 20:45:00,55.5,53.5,29.79,West,274,1.0,7.0,93,0.24,,,0.55,Wunderground v.1.15,2013-04-01 00:45:00,
2013-03-31 20:50:00,55.3,53.3,29.79,SSW,205,1.0,7.0,93,0.19,,,0.57,Wunderground v.1.15,2013-04-01 00:50:00,
2013-03-31 20:55:00,55.2,53.5,29.79,SSW,200,1.0,7.0,94,0.13,,,0.58,Wunderground v.1.15,2013-04-01 00:55:00,
2013-03-31 21:00:00,55.1,53.4,29.78,SSW,200,1.0,1.0,94,0.17,,,0.59,Wunderground v.1.15,2013-04-01 01:00:00,
2013-03-31 21:10:00,55.0,53.6,29.78,SSW,200,0.0,7.0,95,0.05,,,0.59,Wunderground v.1.15,2013-04-01 01:10:00,
2013-03-31 21:15:00,54.9,53.5,29.76,SSW,200,0.0,7.0,95,0.00,,,0.59,Wunderground v.1.15,2013-04-01 01:15:00,
2013-03-31 21:20:00,54.8,53.4,29.76,SSW,200,0.0,7.0,95,0.00,,,0.59,Wunderground v.1.15,2013-04-01 01:20:00,
2013-03-31 21:25:00,54.7,53.3,29.76,SSW,207,0.0,7.0,95,0.00,,,0.59,Wunderground v.1.15,2013-04-01 01:25:00,
2013-03-31 21:35:00,54.5,53.1,29.77,SW,219,1.0,2.0,95,0.00,,,0.59,Wunderground v.1.15,2013-04-01 01:35:00,
2013-03-31 21:40:00,54.4,53.0,29.77,SSE,167,1.0,1.0,95,0.00,,,0.59,Wunderground v.1.15,2013-04-01 01:40:00,
2013-03-31 21:45:00,54.4,53.0,29.77,WSW,237,1.0,2.0,95,0.00,,,0.59,Wunderground v.1.15,2013-04-01 01:45:00,
2013-03-31 21:50:00,54.4,53.3,29.77,West,260,1.0,7.0,96,0.00,,,0.59,Wunderground v.1.15,2013-04-01 01:50:00,
2013-03-31 22:00:00,54.4,53.3,29.78,SSW,203,0.0,7.0,96,0.00,,,0.59,Wunderground v.1.15,2013-04-01 02:00:00,
2013-03-31 22:05:00,54.3,53.2,29.78,SSE,166,0.0,7.0,96,0.00,,,0.59,Wunderground v.1.15,2013-04-01 02:05:00,
2013-03-31 22:10:00,54.3,53.2,29.78,SSW,207,0.0,7.0,96,0.00,,,0.59,Wunderground v.1.15,2013-04-01 02:10:00,
2013-03-31 22:15:00,54.3,53.2,29.78,WSW,238,0.0,7.0,96,0.00,,,0.59,Wunderground v.1.15,2013-04-01 02:15:00,
2013-03-31 22:20:00,54.3,53.2,29.78,SSW,193,1.0,7.0,96,0.00,,,0.59,Wunderground v.1.15,2013-04-01 02:20:00,
2013-03-31 22:30:00,54.3,53.2,29.78,SSE,151,1.0,1.0,96,0.00,,,0.59,Wunderground v.1.15,2013-04-01 02:30:00,
2013-03-31 22:35:00,54.3,53.2,29.78,WSW,258,1.0,7.0,96,0.00,,,0.59,Wunderground v.1.15,2013-04-01 02:35:00,
2013-03-31 22:40:00,54.3,53.2,29.78,SW,216,1.0,1.0,96,0.00,,,0.59,Wunderground v.1.15,2013-04-01 02:40:00,
2013-03-31 22:45:00,54.2,53.4,29.78,SW,216,1.0,2.0,97,0.00,,,0.59,Wunderground v.1.15,2013-04-01 02:45:00,
2013-03-31 22:50:00,54.2,53.4,29.78,SSW,203,1.0,1.0,97,0.00,,,0.59,Wunderground v.1.15,2013-04-01 02:50:00,
2013-03-31 23:00:00,54.3,53.5,29.78,SW,220,0.0,7.0,97,0.00,,,0.59,Wunderground v.1.15,2013-04-01 03:00:00,
2013-03-31 23:05:00,54.3,53.5,29.78,SW,220,0.0,7.0,97,0.00,,,0.59,Wunderground v.1.15,2013-04-01 03:05:00,
2013-03-31 23:10:00,54.2,53.4,29.78,SW,220,0.0,7.0,97,0.00,,,0.59,Wunderground v.1.15,2013-04-01 03:10:00,
2013-03-31 23:15:00,54.2,53.4,29.78,SW,220,0.0,7.0,97,0.00,,,0.59,Wunderground v.1.15,2013-04-01 03:15:00,
2013-03-31 23:25:00,54.1,53.3,29.78,SW,220,0.0,7.0,97,0.00,,,0.59,Wunderground v.1.15,2013-04-01 03:25:00,
2013-03-31 23:30:00,54.1,53.3,29.77,SW,220,0.0,7.0,97,0.00,,,0.59,Wunderground v.1.15,2013-04-01 03:30:00,
2013-03-31 23:35:00,54.1,53.3,29.77,SW,220,0.0,7.0,97,0.00,,,0.59,Wunderground v.1.15,2013-04-01 03:35:00,
2013-03-31 23:40:00,54.1,53.3,29.77,SW,220,0.0,7.0,97,0.00,,,0.59,Wunderground v.1.15,2013-04-01 03:40:00,
2013-03-31 23:50:00,54.0,53.2,29.78,SW,220,0.0,7.0,97,0.00,,,0.59,Wunderground v.1.15,2013-04-01 03:50:00,
2013-03-31 23:55:00,53.9,53.1,29.78,SW,220,0.0,7.0,97,0.00,,,0.59,Wunderground v.1.15,2013-04-01 03:55:00,